FASAT B

导读

FASAT-B是智利(缩写CL)于1998年7月10日发射的首颗国产技术实验卫星,由智利空军航天项目开发,旨在验证本土卫星技术、获取地球遥感影像,推动智利航天技术自主发展。该卫星运行于近地轨道,对后续智利航天体系建设和航天人才培养奠定了基础,是拉美地区新兴航天国家自主探索太空的早期尝试,标志着智利正式进入太空探索领域。

基本信息
目录编号:
25395
目录名称:
FASAT B
国际标识:
1998-043B
轨道中心:
EARTH
卫星名称:
FASAT B
卫星全名:
--
卫星状态:
在轨 (已飞行10231 天)
发射日期:
1998-07-10 UTC
国别 :
智利 (CL)
星等 :
--
轨道信息
数据来源 国际轨道数据
星历时间: 2026-07-14T04:34:16+0800
8小时前
查看轨道信息
半长轴: 7181.519km
偏心率: 0.0003619
轨道倾角: 98.972°
近地点辐角 48.318°
升交点赤经 185.389°
平近点角 311.830°
近地点: 800.783km
远地点: 805.981km
周期: 100.945分钟
每日圈数: 14.265215
详细信息
使用方式:
暂无
2D轨道图
3D轨道图
轨道高度分析图
轨道倾角分析图
轨道综合分析图
查看轨道综合分析图